CW9825 Weather Reports


Display with metric or nautical units.
time (UTC)temp
F
wind
direction
speed
MPH
gust
MPH
rain 1hr
in
rain 24hr
in
rain mn
in
humidity
%
barometer
mb
20181020022041 47 284 5.0 11.0 0.00 0.00 0.00 52 1013.5
20181020021608 48 271 7.0 12.0 0.00 0.00 0.00 52 1013.6
20181020021040 48 300 7.0 12.0 0.00 0.00 0.00 52 1013.5
20181020020545 48 274 7.0 14.0 0.00 0.00 0.00 52 1013.5
20181020020205 48 302 7.0 15.0 0.00 0.00 0.00 52 1013.6
20181020015539 48 273 7.0 15.0 0.00 0.00 0.00 52 1013.6
20181020015044 48 304 6.0 14.0 0.00 0.00 0.00 52 1013.6
20181020014620 48 315 7.0 12.0 0.00 0.00 0.00 52 1013.6
20181020014042 48 261 7.0 13.0 0.00 0.00 0.00 52 1013.6
20181020013539 48 247 6.0 16.0 0.00 0.00 0.00 52 1013.6
20181020013129 49 294 8.0 16.0 0.00 0.00 0.00 52 1013.7
20181020012541 49 271 8.0 15.0 0.00 0.00 0.00 52 1013.7
20181020012037 48 266 6.0 13.0 0.00 0.00 0.00 53 1013.9
20181020011620 49 264 5.0 13.0 0.00 0.00 0.00 53 1014.0
20181020011038 49 294 5.0 10.0 0.00 0.00 0.00 53 1014.0
20181020010537 49 288 4.0 11.0 0.00 0.00 0.00 52 1014.0
20181020010105 50 272 6.0 13.0 0.00 0.00 0.00 52 1014.0
20181020005538 50 275 5.0 11.0 0.00 0.00 0.00 52 1014.0
20181020005038 50 263 6.0 12.0 0.00 0.00 0.00 51 1014.0
20181020004558 50 294 5.0 14.0 0.00 0.00 0.00 51 1013.9
20181020004037 51 298 4.0 14.0 0.00 0.00 0.00 51 1013.9
20181020003537 51 289 5.0 11.0 0.00 0.00 0.00 51 1013.9
20181020003102 51 292 4.0 10.0 0.00 0.00 0.00 50 1013.9
20181020002537 51 296 4.0 11.0 0.00 0.00 0.00 50 1013.9
20181020002034 51 290 5.0 12.0 0.00 0.00 0.00 50 1013.8
20181020001550 52 285 6.0 13.0 0.00 0.00 0.00 49 1013.8
20181020001036 52 309 6.0 13.0 0.00 0.00 0.00 49 1013.7
20181020000537 52 322 6.0 13.0 0.00 0.00 0.00 49 1013.8
20181020000043 52 338 5.0 13.0 0.00 0.00 0.00 48 1013.7
20181019235531 53 292 3.0 15.0 0.00 0.00 0.00 48 1013.6
20181019235033 53 292 6.0 15.0 0.00 0.00 0.00 47 1013.6
20181019234614 53 304 8.0 15.0 0.00 0.00 0.00 47 1013.5
20181019234030 54 306 6.0 18.0 0.00 0.00 0.00 47 1013.5
20181019233530 54 313 6.0 18.0 0.00 0.00 0.00 46 1013.4
20181019233043 54 291 6.0 14.0 0.00 0.00 0.00 46 1013.4
20181019232529 54 298 5.0 17.0 0.00 0.00 0.00 46 1013.3
20181019232028 55 317 7.0 17.0 0.00 0.00 0.00 46 1013.3
20181019231543 55 319 4.0 16.0 0.00 0.00 0.00 46 1013.3
20181019231028 55 311 6.0 16.0 0.00 0.00 0.00 46 1013.3
20181019230528 55 314 5.0 12.0 0.00 0.00 0.00 47 1013.3
20181019230045 55 318 5.0 14.0 0.00 0.00 0.00 47 1013.2
20181019225527 55 298 6.0 14.0 0.00 0.00 0.00 47 1013.3
20181019225028 55 304 6.0 16.0 0.00 0.00 0.00 46 1013.2
20181019224556 55 317 6.0 16.0 0.00 0.00 0.00 47 1013.2
20181019224025 55 312 5.0 17.0 0.00 0.00 0.00 47 1013.2
20181019223525 55 282 5.0 17.0 0.00 0.00 0.00 46 1013.1
20181019223040 56 300 5.0 13.0 0.00 0.00 0.00 45 1013.0
20181019222524 56 323 6.0 16.0 0.00 0.00 0.00 45 1013.1
20181019222024 56 319 9.0 22.0 0.00 0.00 0.00 45 1013.0
20181019221543 56 333 8.0 22.0 0.00 0.00 0.00 44 1013.0
20181019221026 57 332 10.0 25.0 0.00 0.00 0.00 44 1013.0
20181019220525 57 320 8.0 21.0 0.00 0.00 0.00 45 1013.0
20181019220031 57 281 8.0 20.0 0.00 0.00 0.00 44 1012.9
20181019215523 57 304 6.0 20.0 0.00 0.00 0.00 45 1012.9
20181019215023 57 355 8.0 17.0 0.00 0.00 0.00 45 1012.9
20181019214536 57 317 5.0 18.0 0.00 0.00 0.00 45 1012.7
20181019214023 57 300 7.0 19.0 0.00 0.00 0.00 46 1012.8
20181019213521 57 283 5.0 19.0 0.00 0.00 0.00 45 1012.7
20181019213052 57 287 8.0 16.0 0.00 0.00 0.00 44 1012.7
20181019212519 57 295 5.0 17.0 0.00 0.00 0.00 45 1012.6
20181019212018 57 328 7.0 25.0 0.00 0.00 0.00 44 1012.5
20181019211531 58 310 12.0 25.0 0.00 0.00 0.00 43 1012.4
20181019211016 58 295 8.0 17.0 0.00 0.00 0.00 45 1012.4
20181019210517 58 284 5.0 18.0 0.00 0.00 0.00 45 1012.4
20181019210107 58 311 10.0 22.0 0.00 0.00 0.00 44 1012.4
20181019205515 58 309 10.0 22.0 0.00 0.00 0.00 43 1012.3
20181019205015 58 306 8.0 19.0 0.00 0.00 0.00 43 1012.3
20181019204545 59 69 7.0 20.0 0.00 0.00 0.00 43 1012.3
20181019204015 59 335 9.0 21.0 0.00 0.00 0.00 43 1012.3
20181019203515 59 310 10.0 21.0 0.00 0.00 0.00 43 1012.2
20181019203035 58 340 9.0 21.0 0.00 0.00 0.00 43 1012.2
20181019202515 58 329 10.0 21.0 0.00 0.00 0.00 43 1012.2
20181019202013 58 292 7.0 21.0 0.00 0.00 0.00 44 1012.3
20181019201602 58 297 9.0 21.0 0.00 0.00 0.00 43 1012.2
20181019201017 57 283 8.0 20.0 0.00 0.00 0.00 44 1012.2
20181019200514 57 321 7.0 23.0 0.00 0.00 0.00 45 1012.2
20181019200512 57 299 7.0 23.0 0.00 0.00 0.00 45 1012.2
20181019200046 57 317 8.0 24.0 0.00 0.00 0.00 44 1012.1
20181019195510 57 300 9.0 23.0 0.00 0.00 0.00 44 1012.0
20181019195011 58 328 9.0 21.0 0.00 0.00 0.00 42 1012.0
20181019194519 58 319 8.0 23.0 0.00 0.00 0.00 43 1012.1
20181019194010 58 313 13.0 23.0 0.00 0.00 0.00 43 1012.0
20181019193509 58 268 12.0 24.0 0.00 0.00 0.00 42 1012.0
20181019193022 59 17 9.0 24.0 0.00 0.00 0.00 42 1011.9
20181019192008 59 314 14.0 28.0 0.00 0.00 0.00 42 1012.0
20181019191526 59 294 7.0 25.0 0.00 0.00 0.00 43 1011.9
20181019191011 59 294 10.0 25.0 0.00 0.00 0.00 42 1011.9
20181019190507 59 360 8.0 22.0 0.00 0.00 0.00 42 1011.9
20181019190016 59 294 12.0 22.0 0.00 0.00 0.00 42 1011.8
20181019185509 59 333 9.0 21.0 0.00 0.00 0.00 41 1011.9
20181019185007 59 296 7.0 26.0 0.00 0.00 0.00 43 1011.7
20181019184512 59 329 13.0 27.0 0.00 0.00 0.00 42 1011.9
20181019184006 59 37 9.0 27.0 0.00 0.00 0.00 41 1011.8
20181019183010 58 311 9.0 24.0 0.00 0.00 0.00 42 1011.9
20181019182505 58 291 13.0 29.0 0.00 0.00 0.00 40 1011.9
20181019182003 58 277 14.0 29.0 0.00 0.00 0.00 41 1011.8
20181019181504 58 280 11.0 21.0 0.00 0.00 0.00 42 1011.8
20181019181002 58 309 10.0 24.0 0.00 0.00 0.00 42 1011.7
20181019180502 58 305 13.0 27.0 0.00 0.00 0.00 42 1011.8
20181019180002 58 333 10.0 22.0 0.00 0.00 0.00 44 1011.8
20181019175501 58 334 9.0 25.0 0.00 0.00 0.00 43 1011.7
20181019175001 58 313 10.0 25.0 0.00 0.00 0.00 44 1011.6
20181019174625 59 290 10.0 19.0 0.00 0.00 0.00 44 1011.6
20181019173604 58 340 9.0 22.0 0.00 0.00 0.00 44 1011.5
20181019173121 58 319 11.0 22.0 0.00 0.00 0.00 44 1011.6
20181019172603 58 322 7.0 18.0 0.00 0.00 0.00 44 1011.6
20181019172100 58 300 8.0 20.0 0.00 0.00 0.00 46 1011.5
20181019171627 58 314 9.0 20.0 0.00 0.00 0.00 45 1011.5
20181019171059 58 325 7.0 15.0 0.00 0.00 0.00 46 1011.5
20181019170557 58 28 4.0 19.0 0.00 0.00 0.00 47 1011.5
20181019170104 58 336 9.0 19.0 0.00 0.00 0.00 46 1011.5
20181019165555 58 275 5.0 16.0 0.00 0.00 0.00 47 1011.4
20181019164640 57 342 7.0 20.0 0.00 0.00 0.00 48 1011.5
20181019164052 57 64 6.0 20.0 0.00 0.00 0.00 48 1011.4
20181019163556 57 298 9.0 18.0 0.00 0.00 0.00 47 1011.4
20181019163124 56 321 7.0 18.0 0.00 0.00 0.00 49 1011.3
20181019162549 56 316 5.0 18.0 0.00 0.00 0.00 51 1011.2
20181019162052 56 335 6.0 18.0 0.00 0.00 0.00 50 1011.3
20181019161607 56 313 6.0 13.0 0.00 0.00 0.00 51 1011.4
20181019161048 55 5 6.0 17.0 0.00 0.00 0.00 51 1011.2
20181019160554 55 5 10.0 17.0 0.00 0.00 0.00 52 1011.2
20181019160341 55 336 6.0 13.0 0.00 0.00 0.00 51 1011.1
20181019155544 55 5 5.0 13.0 0.00 0.00 0.00 52 1010.9
20181019155044 55 292 6.0 17.0 0.00 0.00 0.00 53 1010.6
20181019154600 54 13 6.0 17.0 0.00 0.00 0.00 54 1010.7
20181019154045 54 329 4.0 15.0 0.00 0.00 0.00 56 1010.6
20181019153542 53 305 5.0 17.0 0.00 0.00 0.00 57 1010.6
20181019153121 53 315 7.0 17.0 0.00 0.00 0.00 56 1010.5
20181019152540 52 313 5.0 14.0 0.00 0.00 0.00 58 1010.4
20181019152039 51 286 5.0 12.0 0.00 0.00 0.00 59 1010.3
20181019151603 51 294 5.0 14.0 0.00 0.00 0.00 60 1010.3
20181019151038 50 315 6.0 14.0 0.00 0.00 0.00 61 1010.1
20181019150540 50 297 7.0 15.0 0.00 0.00 0.00 61 1010.2
20181019150049 50 311 8.0 15.0 0.00 0.00 0.00 61 1010.1
20181019145534 50 307 5.0 14.0 0.00 0.00 0.00 62 1010.0
20181019145036 50 321 8.0 15.0 0.00 0.00 0.00 62 1010.0
20181019144608 50 309 5.0 15.0 0.00 0.00 0.00 64 1009.9
20181019144033 49 311 8.0 15.0 0.00 0.00 0.00 63 1009.8
20181019143533 49 281 6.0 14.0 0.00 0.00 0.00 64 1009.7
20181019143051 49 291 6.0 14.0 0.00 0.00 0.00 64 1009.5
20181019142533 48 311 5.0 14.0 0.00 0.00 0.00 65 1009.4
20181019142031 48 309 6.0 14.0 0.00 0.00 0.00 66 1009.4
20181019141550 48 283 4.0 13.0 0.00 0.00 0.00 66 1009.4
20181019141031 48 313 5.0 13.0 0.00 0.00 0.00 67 1009.3
20181019140535 48 305 6.0 13.0 0.00 0.00 0.00 66 1009.2
20181019140040 48 302 4.0 15.0 0.00 0.00 0.00 66 1009.2
20181019135530 48 300 7.0 16.0 0.00 0.00 0.00 67 1009.1
20181019135030 47 297 6.0 16.0 0.00 0.00 0.00 67 1009.0
20181019134542 47 296 6.0 14.0 0.00 0.00 0.00 68 1008.8
20181019134024 47 309 6.0 14.0 0.00 0.00 0.00 68 1008.6
20181019133525 47 306 6.0 13.0 0.00 0.00 0.00 68 1008.4
20181019133031 47 321 5.0 13.0 0.00 0.00 0.00 68 1008.3
20181019132525 47 286 5.0 11.0 0.00 0.00 0.00 68 1008.1
20181019132026 47 296 4.0 9.0 0.00 0.00 0.00 68 1008.0
20181019131533 47 313 3.0 9.0 0.00 0.00 0.00 69 1007.8
20181019131022 47 326 3.0 12.0 0.00 0.00 0.00 69 1007.8
20181019130523 47 292 4.0 13.0 0.00 0.00 0.00 69 1007.8
20181019130102 47 294 4.0 12.0 0.00 0.00 0.00 69 1007.8
20181019125525 46 313 4.0 12.0 0.00 0.00 0.00 70 1007.7
20181019125023 46 325 5.0 12.0 0.00 0.00 0.00 71 1007.5
20181019124635 46 299 4.0 11.0 0.00 0.00 0.00 71 1007.3
20181019124021 46 322 5.0 12.0 0.00 0.00 0.00 72 1007.4
20181019123521 46 292 5.0 12.0 0.00 0.00 0.00 73 1007.3
20181019123025 45 281 5.0 13.0 0.00 0.00 0.00 74 1007.2
20181019122520 45 309 4.0 15.0 0.00 0.00 0.00 75 1007.1
20181019122020 45 305 5.0 15.0 0.00 0.00 0.00 76 1007.2
20181019121525 45 294 6.0 12.0 0.00 0.00 0.00 76 1007.0
20181019121019 45 300 5.0 12.0 0.00 0.00 0.00 76 1006.8
20181019120518 46 302 4.0 12.0 0.00 0.00 0.00 76 1006.7
20181019120033 46 306 5.0 12.0 0.00 0.00 0.00 76 1006.6
20181019115516 46 312 6.0 12.0 0.00 0.00 0.00 76 1006.6
20181019115013 46 282 7.0 10.0 0.00 0.00 0.00 76 1006.4
20181019114522 47 298 5.0 10.0 0.00 0.00 0.00 76 1006.3
20181019114010 47 271 2.0 7.0 0.00 0.00 0.00 76 1006.0
20181019113511 47 291 3.0 7.0 0.00 0.00 0.00 76 1006.0
20181019113017 47 304 3.0 7.0 0.00 0.00 0.00 76 1005.9
20181019112507 48 255 3.0 7.0 0.00 0.00 0.00 75 1005.7
20181019112007 48 251 3.0 9.0 0.00 0.00 0.00 75 1005.6
20181019111515 48 256 4.0 9.0 0.00 0.00 0.00 75 1005.7
20181019111005 48 292 4.0 9.0 0.00 0.00 0.00 75 1005.7
20181019110504 48 267 3.0 9.0 0.00 0.00 0.00 76 1005.7
20181019110009 48 286 3.0 7.0 0.00 0.00 0.00 76 1005.5
20181019105502 48 267 3.0 9.0 0.00 0.00 0.00 76 1005.6
20181019105001 49 269 4.0 10.0 0.00 0.00 0.00 76 1005.5
20181019104501 49 260 3.0 10.0 0.00 0.00 0.00 76 1005.4
20181019104100 49 263 6.0 10.0 0.00 0.00 0.00 76 1005.5
20181019103600 49 259 2.0 9.0 0.00 0.00 0.00 76 1005.4
20181019103413 49 236 4.0 9.0 0.00 0.00 0.00 76 1005.3
20181019102558 50 257 2.0 9.0 0.00 0.00 0.00 75 1005.2
20181019102100 50 257 3.0 8.0 0.00 0.00 0.00 75 1005.3
20181019101623 50 265 1.0 9.0 0.00 0.00 0.00 75 1005.2
20181019101101 50 268 4.0 9.0 0.00 0.00 0.00 75 1005.4
20181019100559 50 263 4.0 13.0 0.00 0.00 0.00 75 1005.3
20181019100155 50 231 3.0 13.0 0.00 0.00 0.00 75 1005.3
20181019095557 50 253 3.0 8.0 0.00 0.00 0.00 76 1005.4
20181019095056 51 265 3.0 11.0 0.00 0.00 0.00 75 1005.2
20181019094608 51 273 2.0 11.0 0.00 0.00 0.00 75 1005.1
20181019094057 51 258 2.0 10.0 0.00 0.00 0.00 75 1005.1
20181019093554 51 218 4.0 13.0 0.00 0.00 0.00 75 1005.2
20181019093218 51 259 4.0 13.0 0.00 0.00 0.00 75 1005.2
20181019092553 51 259 4.0 9.0 0.00 0.00 0.00 75 1005.3
20181019092052 51 250 1.0 12.0 0.00 0.00 0.00 74 1005.3
20181019091621 52 257 3.0 14.0 0.00 0.00 0.00 74 1005.3
20181019091053 52 268 3.0 13.0 0.00 0.00 0.00 73 1005.4
20181019090554 52 269 1.0 10.0 0.00 0.00 0.00 73 1005.4
20181019090215 52 249 2.0 10.0 0.00 0.00 0.00 73 1005.5
20181019085549 52 220 3.0 10.0 0.00 0.00 0.00 73 1005.5
20181019085051 52 269 0.0 9.0 0.00 0.00 0.00 73 1005.5
20181019084606 53 232 0.0 11.0 0.00 0.00 0.00 72 1005.6
20181019084049 53 244 4.0 13.0 0.00 0.00 0.00 71 1005.7
20181019083547 53 238 3.0 13.0 0.00 0.00 0.00 71 1005.8
20181019083141 53 271 3.0 10.0 0.00 0.00 0.00 71 1005.9
20181019082549 54 253 3.0 10.0 0.00 0.00 0.00 70 1005.9
20181019082046 54 259 3.0 12.0 0.00 0.00 0.00 70 1005.9
20181019081632 54 318 4.0 13.0 0.00 0.00 0.00 69 1005.9
20181019081051 54 280 4.0 13.0 0.00 0.00 0.00 69 1006.0
20181019080544 54 234 4.0 13.0 0.00 0.00 0.00 69 1005.9
20181019080152 55 249 6.0 15.0 0.00 0.00 0.00 69 1006.0
20181019075543 55 263 4.0 15.0 0.00 0.00 0.00 68 1006.1
20181019075043 55 186 4.0 15.0 0.00 0.00 0.00 68 1006.1
20181019074610 55 249 4.0 15.0 0.00 0.00 0.00 68 1006.1
20181019074041 55 254 4.0 11.0 0.00 0.00 0.00 68 1006.1
20181019073540 55 257 2.0 11.0 0.00 0.00 0.00 68 1006.2
20181019073144 55 238 2.0 11.0 0.00 0.00 0.00 68 1006.4
20181019072539 55 252 3.0 12.0 0.00 0.00 0.00 68 1006.5
20181019072039 55 233 1.0 12.0 0.00 0.00 0.00 69 1006.5
20181019071612 55 245 2.0 11.0 0.00 0.00 0.00 69 1006.6
20181019071038 54 222 4.0 11.0 0.00 0.00 0.00 71 1006.7
20181019070533 53 248 1.0 9.0 0.00 0.00 0.00 73 1006.8
20181019070115 51 243 1.0 5.0 0.00 0.00 0.00 76 1006.9
20181019065530 50 184 0.0 0.0 0.00 0.00 0.00 77 1007.0
20181019065029 49 184 0.0 0.0 0.00 0.00 0.00 78 1007.1
20181019064550 49 184 0.0 2.0 0.00 0.00 0.00 78 1007.1
20181019064028 49 184 0.0 3.0 0.00 0.00 0.00 78 1007.1
20181019063527 48 184 0.0 3.0 0.00 0.00 0.00 78 1007.1
20181019063050 48 184 1.0 3.0 0.00 0.00 0.00 78 1007.2
20181019062529 48 186 0.0 4.0 0.00 0.00 0.00 78 1007.3
20181019062025 49 182 0.0 4.0 0.00 0.00 0.00 77 1007.3
20181019061600 49 188 0.0 5.0 0.00 0.00 0.00 77 1007.5
20181019061022 49 200 1.0 5.0 0.00 0.00 0.00 77 1007.5
20181019060521 49 192 1.0 4.0 0.00 0.00 0.00 76 1007.6
20181019060035 49 195 0.0 4.0 0.00 0.00 0.00 76 1007.7
20181019055520 49 195 0.0 4.0 0.00 0.00 0.00 76 1007.8
20181019055019 50 192 1.0 4.0 0.00 0.00 0.00 75 1007.9
20181019054526 50 182 0.0 5.0 0.00 0.00 0.00 75 1007.9
20181019054017 50 173 1.0 6.0 0.00 0.00 0.00 74 1007.8
20181019053516 51 180 3.0 6.0 0.00 0.00 0.00 74 1007.9
20181019053019 51 197 2.0 6.0 0.00 0.00 0.00 73 1007.9
20181019052519 51 190 2.0 6.0 0.00 0.00 0.00 72 1008.0
20181019052015 51 187 1.0 6.0 0.00 0.00 0.00 72 1008.1
20181019051513 51 189 2.0 6.0 0.00 0.00 0.00 72 1008.1
20181019051015 51 221 1.0 8.0 0.00 0.00 0.00 73 1008.3
20181019050510 51 200 0.0 8.0 0.00 0.00 0.00 72 1008.3
20181019050026 51 188 2.0 6.0 0.00 0.00 0.00 73 1008.3
20181019045508 51 165 3.0 7.0 0.00 0.00 0.00 73 1008.4
20181019045007 51 168 5.0 7.0 0.00 0.00 0.00 72 1008.4
20181019044508 52 211 2.0 5.0 0.00 0.00 0.00 71 1008.5
20181019044010 52 195 1.0 5.0 0.00 0.00 0.00 71 1008.6
20181019043509 52 179 1.0 8.0 0.00 0.00 0.00 71 1008.6
20181019043008 52 158 3.0 8.0 0.00 0.00 0.00 71 1008.6
20181019042504 52 161 4.0 8.0 0.00 0.00 0.00 70 1008.7
20181019042007 53 212 2.0 8.0 0.00 0.00 0.00 70 1008.7
20181019041530 53 165 3.0 8.0 0.00 0.00 0.00 69 1008.8
20181019041005 53 165 4.0 8.0 0.00 0.00 0.00 69 1008.9
20181019040502 53 155 3.0 8.0 0.00 0.00 0.00 69 1009.0
20181019040007 53 172 3.0 8.0 0.00 0.00 0.00 68 1009.1
20181019035502 53 202 2.0 9.0 0.00 0.00 0.00 67 1009.2
20181019035001 54 202 2.0 9.0 0.00 0.00 0.00 66 1009.1
20181019034510 54 206 3.0 11.0 0.00 0.00 0.00 66 1009.1
20181019034002 55 174 4.0 11.0 0.00 0.00 0.00 65 1009.1
20181019033502 55 188 5.0 9.0 0.00 0.00 0.00 65 1009.1
20181019033001 55 166 3.0 7.0 0.00 0.00 0.00 65 1009.1
20181019032502 55 161 2.0 8.0 0.00 0.00 0.00 64 1009.2
20181019032101 55 153 3.0 8.0 0.00 0.00 0.00 64 1009.2
20181019031632 56 174 4.0 9.0 0.00 0.00 0.00 63 1009.2
20181019031104 56 202 5.0 9.0 0.00 0.00 0.00 62 1009.3
20181019030559 57 140 4.0 10.0 0.00 0.00 0.00 61 1009.3
20181019030237 57 158 5.0 10.0 0.00 0.00 0.00 61 1009.6
20181019025559 57 176 5.0 8.0 0.00 0.00 0.00 61 1009.7
20181019025057 57 174 4.0 8.0 0.00 0.00 0.00 60 1009.8
20181019024631 57 167 2.0 7.0 0.00 0.00 0.00 60 1009.8
20181019024057 57 184 3.0 10.0 0.00 0.00 0.00 60 1009.9
20181019023556 57 158 3.0 10.0 0.00 0.00 0.00 60 1010.0
20181019023355 57 189 4.0 9.0 0.00 0.00 0.00 60 1010.1
20181019022556 58 169 3.0 8.0 0.00 0.00 0.00 59 1010.1